COSMOS 1275 DEB, 42193

Orbit data source: Space-Track

COSMOS 1275 DEB, 42193 is space debris in LEO originally from a launch on Thu, 04 Jun 1981 UTC launched from the Plesetsk Missile And Space Complex (PKMTR). Debris objects in space refer to the collection of defunct objects orbiting the Earth. Examples of debris include non-operational satellites, rocket bodies, and fragments generated from explosions, collisions, or faulty payload assembly.

Loading next visibility...
Identifier
42193, 1981-053TH
Orbit
LEO
Country
Flag of CISCIS
Related business
Manufacturer
Unknown
Mission
Spacecraft
Bus & Motor
Unknown
Mass
Unknown
Launch date (UTC)
1981-06-04 (45 years ago)
Launch vehicle
Unknown
Launch site
Plesetsk Missile And Space Complex (PKMTR)
Object type
Payload
Rocket body
Debris
Shape & HBR
Unknown shape, 0.1 m
Radar Cross Section
Small (<0.1 m²)

Expand to show TLE details & history
Last TLE update: 1 day ago

TLE from 1 day ago
0 COSMOS 1275 DEB
1 42193U 81053TH  25350.02755188  .00000600  00000-0  64950-3 0  9990
2 42193  82.9551   8.3854 0131520 106.2952 255.2713 13.67838612589727
Epoch: 2025-12-16T00:39Z
TLE epoch observation values (Epoch: 2025-12-16T00:39:40.482Z)
Latitude
0.00006°
Longitude
-86.45092°
Altitude
1,036.121 km
Speed
7.321 km/s
True Right ascension
00h 33m 32s
True Declination
0° 00' 00"
Sunlit
Object was in daylight at epoch
Visualization orbit readout
Latitude
Unknown
Longitude
Unknown
Altitude
Unknown
Speed
Unknown
Apparent Right ascension
Unknown
Apparent Declination
Unknown
Sunlit
N/A
Visualization observer readout
Local Sidereal Time
09:05:02
Azimuth
Unknown
Elevation
Unknown
Doppler factor
Unknown
Orbital elements
Apogee altitude
1,101.595 km
Perigee altitude
907.402 km
Semi-major axis
7,382.635 km
Eccentricity
0.01315
Inclination
82.9551°
RAAN
8.3854°
Arg. of periapsis
106.2952°
True anomaly
253.81994°
Mean anomaly
255.2713°
Eccentric anomaly
254.54499°
Mean motion
3.42157 °/min
Orbital period
105.21 mins
BSTAR
0.0006495
Loading maneuver chart data...
Computing Atmospheric mass density...

Documentation

Showing up to 5 results
|